Simultaneous Nadir Overpasses (SNOs) Predictions

Prediction of SNOs between AQUA and LANDSAT-8 Satellite Orbit:

Table of predicted SNOs for the next 14.0 days since TLE Epoch: 10/25/2025
Index Date (AQUA) Time (AQUA) Lat,Lon (AQUA) SZA (AQUA ) Date (LANDSAT-8) Time (LANDSAT-8) Lat,Lon (LANDSAT-8) SZA (LANDSAT-8 ) Distance(km) Time Diff (sec)
1 11/04/2025 12:44:10 -75.64, 178.74 88.50 11/04/2025 12:43:03 -75.63, 176.44 88.65 63.44 67
2 11/04/2025 13:33:34 75.96, -14.54 91.77 11/04/2025 13:32:22 75.94, -14.98 91.72 11.93 72
3 11/04/2025 14:22:52 -76.00, 152.98 88.18 11/04/2025 14:21:48 -76.02, 152.91 88.18 2.74 64
4 11/04/2025 15:12:10 76.03, -39.40 91.85 11/04/2025 15:11:13 76.04, -39.39 91.86 1.77 57
5 11/04/2025 16:01:27 -76.02, 128.28 88.14 11/04/2025 16:00:41 -76.02, 128.20 88.16 2.13 46
6 11/04/2025 16:50:45 76.05, -64.11 91.89 11/04/2025 16:50:06 76.04, -64.10 91.88 0.40 39
7 11/04/2025 17:40:02 -76.05, 103.57 88.11 11/04/2025 17:39:34 -76.03, 103.49 88.13 2.92 28
8 11/04/2025 18:29:20 76.07, -88.82 91.93 11/04/2025 18:28:59 76.05, -88.81 91.90 2.09 21
9 11/04/2025 19:18:37 -76.07, 78.86 88.07 11/04/2025 19:18:26 -76.08, 78.93 88.05 2.39 11
10 11/04/2025 20:07:55 76.09,-113.53 91.96 11/04/2025 20:07:52 76.05,-113.52 91.93 3.98 3
11 11/04/2025 20:57:12 -76.09, 54.16 88.03 11/04/2025 20:57:19 -76.08, 54.22 88.03 1.70 7
12 11/04/2025 21:46:29 76.06,-138.08 91.96 11/04/2025 21:46:45 76.05,-138.23 91.95 4.07 16
13 11/04/2025 22:35:47 -76.11, 29.45 87.99 11/04/2025 22:36:12 -76.09, 29.51 88.00 2.69 25
14 11/04/2025 23:25:04 76.08,-162.79 92.00 11/04/2025 23:25:37 76.11,-162.79 92.03 3.00 33
15 11/05/2025 00:14:21 -76.08, 4.90 88.00 11/05/2025 00:15:05 -76.09, 4.80 87.98 2.93 44
16 11/05/2025 01:03:39 76.10, 172.50 92.04 11/05/2025 01:04:30 76.11, 172.50 92.06 1.08 51
17 11/05/2025 01:52:56 -76.10, -19.81 87.96 11/05/2025 01:53:58 -76.09, -19.91 87.95 2.75 62
18 11/05/2025 02:42:13 76.12, 147.80 92.08 11/05/2025 02:43:22 76.11, 147.79 92.08 0.86 69
19 11/05/2025 03:31:36 -76.41, -45.48 87.68 11/05/2025 03:32:44 -76.39, -43.69 87.60 46.83 68
20 11/05/2025 04:21:00 76.71, 121.12 92.59 11/05/2025 04:22:03 76.69, 125.00 92.77 99.30 63



Historial Predications of SNOs between AQUA and LANDSAT-8
